Location: Cahas Mountain Overlook
(37.0833°N, 80.1000°W)
Time: 03:31:01
(UTC-04:00)

BlueWalker 3 - Visible Passes

Search period start: 03 October 2023 00:00
Search period end: 13 October 2023 00:00
Orbit: 491 x 508 km, 53.2° (Epoch: 02 October)

Date Brightness Start Highest point End Pass type
(mag) Time Alt. Az. Time Alt. Az. Time Alt. Az.
03 Oct 4.2 04:52:21 22° NE 04:52:21 22° NE 04:55:06 10° E visible
03 Oct 2.1 06:27:01 10° WNW 06:30:41 51° SW 06:34:25 10° SSE visible
04 Oct 4.9 04:32:26 15° ENE 04:32:26 15° ENE 04:33:27 10° E visible
04 Oct 2.1 06:07:07 25° WNW 06:09:02 51° SW 06:12:47 10° SSE visible
05 Oct 2.0 05:47:22 51° SW 05:47:23 51° SW 05:51:07 10° SSE visible
06 Oct 3.6 05:27:45 24° SSE 05:27:45 24° SSE 05:29:26 10° SSE visible
06 Oct 3.8 20:43:54 10° SSW 20:45:11 19° SSW 20:45:11 19° SSW visible
07 Oct 2.4 20:22:12 10° SSW 20:25:23 40° SSE 20:25:23 40° SSE visible
08 Oct 2.3 20:00:29 10° SSW 20:04:03 41° SE 20:05:24 29° E visible
08 Oct 5.0 21:39:26 10° W 21:40:03 13° W 21:40:03 13° W visible
09 Oct 2.3 19:38:45 10° SSW 19:42:19 42° SE 19:45:13 14° ENE visible
09 Oct 4.3 21:17:43 10° W 21:19:52 22° WNW 21:19:52 22° WNW visible
10 Oct 2.4 19:17:00 10° SSW 19:20:35 42° SE 19:24:11 10° ENE visible
10 Oct 3.8 20:55:59 10° W 20:59:07 24° NNW 20:59:30 24° NNW visible
11 Oct 3.9 20:34:13 10° W 20:37:22 24° NNW 20:38:58 18° N visible
12 Oct 3.9 20:12:28 10° W 20:15:36 24° NNW 20:18:18 12° NNE visible
